Starlink 3913

operational
NORAD ID: 52485 Int'l Des: 2022-049 Owner: SPXS Country: US Constellation: starlink
LEOCIRCULAR

Starlink 3913について

説明を読み込み中...

リアルタイム位置

3D地球を読み込み中...

次回通過

高度履歴

Altitude vs Time

uPlot chart will show altitude changes over time

軌道要素

1 52485U 22049AL 26062.41728214 .00000361 00000-0 40767-4 0 9994
2 52485 53.2170 77.2794 0001325 90.4651 269.6493 15.08838515211441
Epoch: Mar 3, 2026 • Age: 24 hours

現在のステータス

高度 545.9 km
速度 7.59 km/s
衛星直下点 -20.73°S, 114.69°E
打ち上げ日 May 6, 2022
運用期間 3.8 years
タイプ internet

技術仕様

分類 Payload
質量 297.00 kg
乾燥質量 220.00 kg
総質量 297.00 kg
長さ 0.20 m
直径 2.80 m
スパン 9.00 m
形状 Box + pan
製造者 SPXS
バスタイプ Starlink
フェーズステータス In Orbit
所有者/国 SPXS/US

大規模コンステレーション

Loading constellations...